User: anonymous   Login
Location: Hawaiian Village Mobile Home Park
(32.8359°N, 116.9792°W)
Time: 23:00:03
(UTC+00:00)
Language:

Cosmos 1484 Rocket - Orbit

View from above orbital plane
View from above orbital plane
View from above satellite
View from above satellite

Ground track
Ground track

The orbit data is extracted from the following two-line orbital elements,

1 14208U 83075B   21300.53550553  .00001279  00000-0  77704-4 0  9993
2 14208  97.4539 275.8354 0039286  35.8351 324.5503 15.11629400 87816
Epoch (UTC): 27 October 2021 12:51:07
Eccentricity: 0.0039286
inclination: 97.4539°
perigee height: 504 km
apogee height: 558 km
right ascension of ascending node: 275.8354°
argument of perigee: 35.8351°
revolutions per day: 15.11629400
mean anomaly at epoch: 324.5503°
orbit number at epoch: 8781

The dashed part of the orbit path shows where the satellite is in the earth's shadow,  

DLR